"Pseudo-MPEC" for P225j34

Created 2025 Jan 22 23:31:17 UT using Find_Orb

Click here for an explanation of pseudo-MPECs

 
 Astrometry: 
     P225j34* C2025 01 07.21808622 15 02.734+32 35 12.96   ~1782 21.45wXNEOCPF52
     P225j34  C2025 01 07.24220722 15 03.667+32 36 30.64   ~1782 21.27wXNEOCPF52
     P225j34  C2025 01 07.25426322 15 04.143+32 37 09.75   ~1782 21.40wXNEOCPF52

Station data:
(F52) Pan-STARRS 2, Haleakala  (N20.707382 W156.255910)  US/Hawaii.
   Observers J. Bulger, T. Dukes, T. Lowe, A. Schultz, M. Willman. Measurers
   K. Chambers, S. Chastel, T. de Boer, L. Denneau, J. Fairlamb, H.
   Flewelling, M. Huber, C.-C. Lin, E. Magnier, Y. Ramanjooloo, R. Wainscoat,
   R. Weryk. 1.8-m Ritchey-Chrétien + CCD.

Orbital elements:  P225j34
   Perihelion 2024 Sep 20.59926 +/- 63.2 TT = 14:22:55 (JD 2460574.09926)
Epoch 2025 Jan  7.0 TT = JDT 2460682.5   Earth MOID: 0.0869   Ve: 0.0818
M 154.80297435 +/- 90               (J2000 ecliptic)             AutoNEOCP
n   1.42806195 +/- 0.77             Peri.  214.84636 +/- 110
a   0.78097659 +/- 0.281            Node    81.06025 +/- 39
e   0.1994395 +/- 0.261             Incl.   64.07258 +/- 27
P   0.690/252.085d         H 20.39  G  0.15   U 12.6  SR
q 0.62521900 +/- 0.197    Q 0.93673417 +/- 17
From 3 observations 2025 Jan. 7 (52.1 min); mean residual 0".09
Residuals in arcseconds: 
250107 F52  .00   .06+    250107 F52  .01+  .17-    250107 F52  .01-  .11+    

Ephemerides (geocentric):
Date (UTC) HH   RA             Dec           delta  r     elong  mag " sig PA
---- --------  ------------   ------------  ------ ------ -----  --- --------
2025 01 23 00  22 21 01.519   +41 03 50.53  .63419 .93664  66.7 21.9  20d  67
2025 01 23 01  22 21 01.923   +41 04 37.05  .63477 .93665  66.7 21.9  20d  67
2025 01 23 02  22 21 02.326   +41 05 23.46  .63535 .93665  66.7 21.9  20d  67
2025 01 23 03  22 21 02.728   +41 06 09.76  .63593 .93666  66.7 21.9  20d  67
2025 01 23 04  22 21 03.127   +41 06 55.96  .63651 .93666  66.6 21.9  20d  67
2025 01 23 05  22 21 03.525   +41 07 42.05  .63709 .93666  66.6 21.9  20d  67
2025 01 23 06  22 21 03.922   +41 08 28.04  .63766 .93667  66.6 21.9  20d  67
2025 01 23 07  22 21 04.317   +41 09 13.93  .63824 .93667  66.6 21.9  20d  67
2025 01 23 08  22 21 04.710   +41 09 59.70  .63882 .93668  66.6 21.9  20d  67
2025 01 23 09  22 21 05.101   +41 10 45.38  .63940 .93668  66.6 21.9  20d  67
2025 01 23 10  22 21 05.491   +41 11 30.95  .63997 .93668  66.6 21.9  20d  67
2025 01 23 11  22 21 05.879   +41 12 16.41  .64055 .93669  66.5 21.9  20d  67
2025 01 23 12  22 21 06.266   +41 13 01.78  .64113 .93669  66.5 21.9  20d  67
2025 01 23 13  22 21 06.651   +41 13 47.04  .64170 .93669  66.5 21.9  20d  67
2025 01 23 14  22 21 07.035   +41 14 32.19  .64228 .93670  66.5 21.9  20d  67
2025 01 23 15  22 21 07.416   +41 15 17.25  .64285 .93670  66.5 21.9  20d  67
2025 01 23 16  22 21 07.797   +41 16 02.20  .64343 .93670  66.5 21.9  20d  67
2025 01 23 17  22 21 08.175   +41 16 47.05  .64400 .93670  66.5 21.9  20d  67
2025 01 23 18  22 21 08.552   +41 17 31.80  .64458 .93671  66.4 21.9  20d  67
2025 01 23 19  22 21 08.928   +41 18 16.45  .64515 .93671  66.4 21.9  20d  67
2025 01 23 20  22 21 09.302   +41 19 01.00  .64572 .93671  66.4 21.9  20d  67
2025 01 23 21  22 21 09.674   +41 19 45.45  .64630 .93671  66.4 21.9  20d  67
2025 01 23 22  22 21 10.045   +41 20 29.79  .64687 .93672  66.4 21.9  20d  67
2025 01 23 23  22 21 10.414   +41 21 14.04  .64744 .93672  66.4 21.9  20d  67
2025 01 24 00  22 21 10.782   +41 21 58.19  .64801 .93672  66.4 21.9  20d  67
2025 01 24 01  22 21 11.148   +41 22 42.24  .64858 .93672  66.3 21.9  20d  67
2025 01 24 02  22 21 11.513   +41 23 26.19  .64916 .93672  66.3 21.9  20d  67
2025 01 24 03  22 21 11.876   +41 24 10.04  .64973 .93672  66.3 21.9  20d  67
2025 01 24 04  22 21 12.237   +41 24 53.79  .65030 .93673  66.3 21.9  20d  67
2025 01 24 05  22 21 12.597   +41 25 37.45  .65087 .93673  66.3 21.9  20d  67
2025 01 24 06  22 21 12.956   +41 26 21.00  .65144 .93673  66.3 21.9  20d  67
2025 01 24 07  22 21 13.313   +41 27 04.46  .65201 .93673  66.3 21.9  20d  67
2025 01 24 08  22 21 13.668   +41 27 47.83  .65258 .93673  66.2 21.9  20d  67
2025 01 24 09  22 21 14.022   +41 28 31.09  .65315 .93673  66.2 21.9  20d  67
2025 01 24 10  22 21 14.375   +41 29 14.26  .65372 .93673  66.2 21.9  20d  67
2025 01 24 11  22 21 14.726   +41 29 57.34  .65428 .93673  66.2 21.9  21d  68
2025 01 24 12  22 21 15.075   +41 30 40.31  .65485 .93673  66.2 21.9  21d  68
2025 01 24 13  22 21 15.423   +41 31 23.19  .65542 .93673  66.2 21.9  21d  68
2025 01 24 14  22 21 15.770   +41 32 05.98  .65599 .93673  66.2 21.9  21d  68
2025 01 24 15  22 21 16.115   +41 32 48.67  .65655 .93673  66.1 21.9  21d  68
2025 01 24 16  22 21 16.458   +41 33 31.27  .65712 .93673  66.1 21.9  21d  68
2025 01 24 17  22 21 16.800   +41 34 13.77  .65769 .93673  66.1 21.9  21d  68
2025 01 24 18  22 21 17.141   +41 34 56.18  .65825 .93673  66.1 21.9  21d  68
2025 01 24 19  22 21 17.480   +41 35 38.49  .65882 .93673  66.1 21.9  21d  69
2025 01 24 20  22 21 17.818   +41 36 20.71  .65938 .93673  66.1 21.9  21d  69
2025 01 24 21  22 21 18.154   +41 37 02.84  .65995 .93673  66.1 21.9  21d  69
2025 01 24 22  22 21 18.489   +41 37 44.88  .66051 .93673  66.0 21.9  21d  69
2025 01 24 23  22 21 18.822   +41 38 26.82  .66108 .93673  66.0 21.9  21d  69